Location: Namasale
(1.5000°N, 32.6167°E)
Time: 09:04:27
(UTC+00:00)

Vanguard 1 Rocket - Pass Details

Date: 20 April 2021
Orbit: 652 x 4225 km, 34.3° (Epoch: 15 May)

Event Time Altitude Azimuth Distance (km) Brightness Sun altitude
Rises 19:59:09 0° 290° (WNW) 4,412 11.4 -59.8°
Reaches altitude 10° 20:01:37 10° 285° (WNW) 3,754 10.8 -60.3°
Enters shadow 20:03:13 18° 280° (W) 3,382 10.5 -60.7°
Maximum altitude 20:11:41 53° 210° (SSW) 2,796 - -62.5°
Drops below altitude 10° 20:31:08 10° 138° (SE) 6,807 - -66.7°
Sets 20:37:40 0° 134° (SE) 8,190 - -68.0°
